Tracking 19559 objects as of 26-Mar-2019
HD Live streaming from Space Station
objects crossing your sky now

IRIDIUM 91 DEB

Track IRIDIUM 91 DEB now!
10-day predictions


NORAD ID: 40327
Int'l Code: 2002-005K
Perigee: 708.6 km
Apogee: 719.0 km
Inclination: 86.4 °
Period: 98.9 minutes
Semi major axis: 7084 km
RCS: Unknown
Launch date: February 11, 2002
Source: United States (US)
Launch site: AIR FORCE WESTERN TEST RANGE (AFWTR)

Note: This is SATELLITE DEBRIS
aabbcc
Your satellite tracking list
Your tracking list is empty




NASA's NSSDC Master Catalog

Two Line Element Set (TLE):
1 40327U 02005K   19084.88855684 +.00002651 +00000-0 +60021-3 0  9993
2 40327 086.3898 359.2820 0007299 141.9026 218.2699 14.55830875228138
Source of the keplerian elements: AFSPC